| time (UTC) | temp C | wind direction | speed KPH | gust KPH | rain 1hr cm | rain 24hr cm | rain mn cm | humidity % | barometer mb |
| 20260504110702 | 13 | 52 | 4.8 | 16.1 | 0.00 | 0.00 | 0.00 | 1 | 1013.7 |
| 20260504100421 | 13 | 38 | 4.8 | 14.5 | 0.00 | 0.00 | 0.00 | 1 | 1013.6 |
| 20260504081124 | 13 | 44 | 3.2 | 9.7 | 0.00 | 0.00 | 0.00 | 1 | 1012.8 |
| 20260504050640 | 12 | 268 | 3.2 | 9.7 | 0.00 | 0.00 | 0.00 | 1 | 1011.1 |
| 20260504045657 | 11 | 267 | 3.2 | 9.7 | 0.00 | 0.00 | 0.00 | 1 | 1010.8 |
| 20260504044649 | 11 | 271 | 1.6 | 8.0 | 0.00 | 0.00 | 0.00 | 1 | 1010.6 |
| 20260504043704 | 12 | 271 | 3.2 | 8.0 | 0.00 | 0.00 | 0.00 | 1 | 1010.6 |
| 20260504040410 | 12 | 263 | 3.2 | 9.7 | 0.00 | 0.00 | 0.00 | 1 | 1010.5 |
| 20260504035415 | 12 | 270 | 3.2 | 9.7 | 0.00 | 0.00 | 0.00 | 1 | 1010.5 |
| 20260504032030 | 12 | 267 | 3.2 | 11.3 | 0.00 | 0.00 | 0.00 | 1 | 1010.5 |
| 20260504031050 | 12 | 266 | 4.8 | 11.3 | 0.00 | 0.00 | 0.00 | 1 | 1010.5 |
| 20260504030037 | 12 | 246 | 4.8 | 11.3 | 0.00 | 0.00 | 0.00 | 1 | 1010.5 |
| 20260504025004 | 12 | 248 | 4.8 | 11.3 | 0.00 | 0.00 | 0.00 | 1 | 1010.5 |
| 20260504024015 | 13 | 262 | 4.8 | 9.7 | 0.00 | 0.00 | 0.00 | 1 | 1010.4 |
| 20260504021814 | 13 | 258 | 1.6 | 9.7 | 0.00 | 0.00 | 0.00 | 1 | 1010.2 |
| 20260504020826 | 13 | 257 | 3.2 | 9.7 | 0.00 | 0.00 | 0.00 | 1 | 1010.2 |
| 20260504015826 | 13 | 259 | 3.2 | 9.7 | 0.00 | 0.05 | 0.00 | 1 | 1010.2 |
| 20260504013704 | 13 | 263 | 3.2 | 9.7 | 0.00 | 0.08 | 0.00 | 1 | 1010.3 |
| 20260504012654 | 13 | 252 | 3.2 | 9.7 | 0.00 | 0.10 | 0.00 | 1 | 1010.3 |
| 20260504011702 | 13 | 252 | 3.2 | 9.7 | 0.00 | 0.13 | 0.00 | 1 | 1010.3 |
| 20260504010646 | 13 | 251 | 3.2 | 11.3 | 0.00 | 0.15 | 0.00 | 1 | 1010.3 |
| 20260504005616 | 13 | 253 | 4.8 | 11.3 | 0.00 | 0.15 | 0.00 | 1 | 1010.2 |
| 20260504003432 | 13 | 243 | 6.4 | 12.9 | 0.00 | 0.15 | 0.00 | 1 | 1010.1 |
| 20260504002409 | 13 | 245 | 4.8 | 11.3 | 0.00 | 0.15 | 0.00 | 1 | 1010.1 |
| 20260504001356 | 13 | 256 | 4.8 | 9.7 | 0.00 | 0.15 | 0.00 | 1 | 1010.1 |
| 20260503235205 | 13 | 256 | 6.4 | 14.5 | 0.00 | 0.15 | 0.00 | 1 | 1010.1 |
| 20260503234156 | 13 | 251 | 8.0 | 14.5 | 0.00 | 0.15 | 0.00 | 1 | 1010.1 |
| 20260503233156 | 13 | 251 | 6.4 | 16.1 | 0.00 | 0.15 | 0.00 | 1 | 1010.0 |
| 20260503232139 | 13 | 234 | 8.0 | 16.1 | 0.00 | 0.15 | 0.00 | 1 | 1010.0 |
| 20260503231150 | 13 | 252 | 6.4 | 14.5 | 0.00 | 0.15 | 0.00 | 1 | 1010.0 |
| 20260503225017 | 14 | 250 | 4.8 | 16.1 | 0.00 | 0.15 | 0.15 | 1 | 1009.8 |
| 20260503224019 | 14 | 256 | 8.0 | 16.1 | 0.00 | 0.15 | 0.15 | 1 | 1009.9 |
| 20260503223026 | 14 | 255 | 4.8 | 11.3 | 0.00 | 0.15 | 0.15 | 1 | 1009.8 |
| 20260503222030 | 14 | 256 | 4.8 | 11.3 | 0.00 | 0.15 | 0.15 | 1 | 1009.7 |
| 20260503215950 | 14 | 250 | 4.8 | 11.3 | 0.00 | 0.15 | 0.15 | 1 | 1009.6 |
| 20260503215002 | 14 | 254 | 4.8 | 11.3 | 0.00 | 0.15 | 0.15 | 1 | 1009.7 |
| 20260503213943 | 14 | 232 | 3.2 | 9.7 | 0.00 | 0.15 | 0.15 | 1 | 1009.7 |
| 20260503211748 | 15 | 196 | 4.8 | 11.3 | 0.00 | 0.15 | 0.15 | 1 | 1009.6 |
| 20260503205658 | 15 | 221 | 4.8 | 9.7 | 0.00 | 0.15 | 0.15 | 1 | 1009.6 |
| 20260503204633 | 15 | 185 | 6.4 | 12.9 | 0.00 | 0.15 | 0.15 | 1 | 1009.5 |
| 20260503203633 | 15 | 199 | 6.4 | 12.9 | 0.00 | 0.15 | 0.15 | 1 | 1009.5 |
| 20260503200334 | 16 | 196 | 6.4 | 11.3 | 0.00 | 0.15 | 0.15 | 1 | 1008.9 |
| 20260503192948 | 17 | 233 | 3.2 | 11.3 | 0.00 | 0.15 | 0.15 | 7 | 1008.5 |
| 20260503192006 | 17 | 200 | 3.2 | 8.0 | 0.00 | 0.15 | 0.15 | 12 | 1008.4 |
| 20260503190954 | 18 | 199 | 3.2 | 8.0 | 0.00 | 0.15 | 0.15 | 19 | 1008.3 |
| 20260503190006 | 18 | 335 | 0.0 | 4.8 | 0.00 | 0.15 | 0.15 | 24 | 1008.3 |
| 20260503183931 | 19 | 335 | 0.0 | 0.0 | 0.00 | 0.15 | 0.15 | 36 | 1008.0 |
| 20260503181809 | 19 | 335 | 0.0 | 4.8 | 0.00 | 0.15 | 0.15 | 37 | 1007.9 |
| 20260503180818 | 19 | 259 | 1.6 | 9.7 | 0.00 | 0.15 | 0.15 | 46 | 1007.9 |
| 20260503175745 | 19 | 260 | 3.2 | 11.3 | 0.00 | 0.15 | 0.15 | 47 | 1007.9 |
| 20260503174750 | 19 | 268 | 4.8 | 11.3 | 0.00 | 0.15 | 0.15 | 50 | 1007.8 |
| 20260503173811 | 20 | 223 | 4.8 | 11.3 | 0.00 | 0.15 | 0.15 | 50 | 1007.7 |
| 20260503172826 | 20 | 200 | 4.8 | 14.5 | 0.00 | 0.15 | 0.15 | 50 | 1007.7 |
| 20260503171803 | 20 | 254 | 4.8 | 14.5 | 0.00 | 0.15 | 0.15 | 50 | 1007.7 |
| 20260503170804 | 20 | 271 | 4.8 | 16.1 | 0.00 | 0.15 | 0.15 | 50 | 1007.7 |
| 20260503150601 | 19 | 104 | 3.2 | 9.7 | 0.00 | 0.18 | 0.15 | 15 | 1007.5 |
| 20260503131247 | 20 | 51 | 3.2 | 11.3 | 0.00 | 0.18 | 0.15 | 42 | 1008.1 |
| 20260503120157 | 20 | 268 | 4.8 | 17.7 | 0.00 | 0.18 | 0.15 | 41 | 1008.1 |